User: anonymous   Login
Location: Albany
(35.0000°S, 118.0000°E)
Time: 02:12:53
(UTC-04:00)
Language:

Radarsat Rocket - Orbit

View from above orbital plane
View from above orbital plane
View from above satellite
View from above satellite

Ground track
Ground track

The orbit data is extracted from the following two-line orbital elements,

1 23711U 95059B   15182.81833196 -.00000001  00000-0  81998-4 0  9999
2 23711 100.4880 167.8329 0368433 140.0660 317.2612 13.12671154941802
Epoch (UTC): 01 July 2015 19:38:23
Eccentricity: 0.0368433
inclination: 100.4880°
perigee height: 933 km
apogee height: 1492 km
right ascension of ascending node: 167.8329°
argument of perigee: 140.0660°
revolutions per day: 13.12671154
mean anomaly at epoch: 317.2612°
orbit number at epoch: 94180

The dashed part of the orbit path shows where the satellite is in the earth's shadow,  

DLR